Location: Fort Wayne
(41.1310°N, 85.1290°W)
Time: 06:38:26
(UTC-04:00)

Cosmos 1953 - Visible Passes

Search period start: 01 April 2015 00:00
Search period end: 11 April 2015 00:00
Orbit: 545 x 567 km, 82.5° (Epoch: 30 March)

Date Brightness Start Highest point End Pass type
(mag) Time Alt. Az. Time Alt. Az. Time Alt. Az.
01 Apr 4.0 06:26:03 10° N 06:29:48 38° ENE 06:33:34 10° SSE visible
02 Apr 3.6 06:23:30 10° N 06:27:21 45° ENE 06:31:12 10° SSE visible
03 Apr 3.3 06:20:58 10° N 06:24:53 52° E 06:28:47 10° SSE visible
04 Apr 2.9 06:18:26 10° N 06:22:24 61° E 06:26:22 10° SSE visible
05 Apr 2.6 06:15:55 10° N 06:19:55 72° E 06:23:54 10° SSE visible
06 Apr 2.4 06:13:24 10° N 06:17:25 83° E 06:21:25 10° S visible
07 Apr 2.2 06:10:53 10° N 06:14:54 84° W 06:18:54 10° S visible
08 Apr 2.2 06:08:22 10° NNW 06:12:22 72° W 06:16:22 10° S visible
09 Apr 2.3 06:05:52 10° NNW 06:09:50 62° W 06:13:47 10° S visible
10 Apr 5.6 04:29:07 10° NE 04:30:17 11° ENE 04:31:41 10° E visible
10 Apr 2.4 06:03:22 10° NNW 06:07:17 53° W 06:11:11 10° S visible
